EW9807 Weather Reports


time (UTC)temp
C
wind
direction
speed
KPH
gust
KPH
rain 1hr
cm
rain 24hr
cm
rain mn
cm
humidity
%
barometer
mb
20260831043029 23 184 0.0 0.0 0.00 0.00 0.00 88 1017.9
20260831042528 23 184 0.0 0.0 0.00 0.00 0.00 88 1018.1
20260831042028 23 184 0.0 0.0 0.00 0.00 0.00 88 1018.0
20260831041528 23 184 0.0 0.0 0.00 0.00 0.00 88 1018.0
20260831041030 24 184 0.0 0.0 0.00 0.00 0.00 88 1018.1
20260831040528 24 184 0.0 0.0 0.00 0.00 0.00 87 1018.2
20260831040027 24 184 0.0 0.0 0.00 0.00 0.00 87 1018.1
20260831035525 24 184 0.0 0.0 0.00 0.00 0.00 87 1018.2
20260831035025 24 184 0.0 0.0 0.00 0.00 0.00 87 1018.2
20260831034525 24 184 0.0 0.0 0.00 0.00 0.00 87 1018.2
20260831034025 24 184 0.0 0.0 0.00 0.00 0.00 86 1018.3
20260831033525 24 184 0.0 0.0 0.00 0.00 0.00 86 1018.4
20260831033032 24 184 0.0 0.0 0.00 0.00 0.00 86 1018.3
20260831032525 24 184 0.0 0.0 0.00 0.00 0.00 85 1018.4
20260831032028 25 184 0.0 0.0 0.00 0.00 0.00 85 1018.5
20260831031527 25 184 0.0 0.0 0.00 0.00 0.00 85 1018.5
20260831031027 25 184 0.0 0.0 0.00 0.00 0.00 84 1018.5
20260831030524 25 184 0.0 0.0 0.00 0.00 0.00 84 1018.4
20260831030024 25 184 0.0 0.0 0.00 0.00 0.00 84 1018.5
20260831025523 25 184 0.0 0.0 0.00 0.00 0.00 84 1018.5
20260831025023 25 184 0.0 0.0 0.00 0.00 0.00 84 1018.5
20260831024524 25 184 0.0 0.0 0.00 0.00 0.00 83 1018.5
20260831024025 25 184 0.0 0.0 0.00 0.00 0.00 83 1018.4
20260831023522 25 184 0.0 0.0 0.00 0.00 0.00 84 1018.4
20260831023034 25 184 0.0 0.0 0.00 0.00 0.00 83 1018.4
20260831022522 25 184 0.0 0.0 0.00 0.00 0.00 82 1018.4
20260831022022 25 184 0.0 0.0 0.00 0.00 0.00 82 1018.3
20260831021534 25 184 0.0 0.0 0.00 0.00 0.00 82 1018.3
20260831021029 25 184 0.0 0.0 0.00 0.00 0.00 83 1018.3
20260831020525 25 184 0.0 0.0 0.00 0.00 0.00 82 1018.2
20260831020044 25 184 0.0 0.0 0.00 0.00 0.00 84 1018.2
20260831015526 25 184 0.0 0.0 0.00 0.00 0.00 83 1018.2
20260831015021 25 184 0.0 0.0 0.00 0.00 0.00 82 1018.2
20260831014521 25 184 0.0 0.0 0.00 0.00 0.00 82 1018.2
20260831014021 25 184 0.0 0.0 0.00 0.00 0.00 82 1018.1
20260831013521 25 184 0.0 0.0 0.00 0.00 0.00 82 1018.1
20260831013021 25 184 0.0 0.0 0.00 0.00 0.00 81 1018.0
20260831012521 26 184 0.0 0.0 0.00 0.00 0.00 82 1017.9
20260831012021 26 184 0.0 0.0 0.00 0.00 0.00 82 1017.9
20260831011525 26 184 0.0 0.0 0.00 0.00 0.00 82 1017.8
20260831011020 26 184 0.0 0.0 0.00 0.00 0.00 81 1017.8
20260831010520 26 184 0.0 0.0 0.00 0.00 0.00 81 1017.7
20260831010020 26 184 0.0 0.0 0.00 0.00 0.00 80 1017.7
20260831005521 26 184 0.0 0.0 0.00 0.00 0.00 80 1017.7
20260831005020 26 184 0.0 0.0 0.00 0.00 0.00 80 1017.6
20260831004520 26 184 0.0 0.0 0.00 0.00 0.00 80 1017.6
20260831004021 26 184 0.0 0.0 0.00 0.00 0.00 80 1017.6
20260831003520 26 184 0.0 0.0 0.00 0.00 0.00 80 1017.6
20260831003019 26 184 0.0 0.0 0.00 0.00 0.00 80 1017.5
20260831002519 26 184 0.0 0.0 0.00 0.00 0.00 79 1017.5
20260831002022 27 184 0.0 0.0 0.00 0.00 0.00 78 1017.4
20260831001526 27 184 0.0 0.0 0.00 0.00 0.00 76 1017.4
20260831001019 27 184 0.0 0.0 0.00 0.00 0.00 76 1017.3
20260831000519 27 184 0.0 0.0 0.00 0.00 0.00 76 1017.3
20260831000021 27 184 0.0 0.0 0.00 0.00 0.00 75 1017.2
20260830235517 27 184 0.0 0.0 0.00 0.00 0.00 74 1017.2
20260830235023 27 184 0.0 0.0 0.00 0.00 0.00 73 1017.1
20260830234532 28 184 0.0 0.0 0.00 0.00 0.00 73 1017.1
20260830234018 28 184 0.0 0.0 0.00 0.00 0.00 72 1017.1
20260830233518 28 184 0.0 0.0 0.00 0.00 0.00 70 1017.1
20260830233018 28 184 0.0 0.0 0.00 0.00 0.00 69 1017.0
20260830232518 28 184 0.0 0.0 0.00 0.00 0.00 68 1017.0
20260830232022 28 184 0.0 0.0 0.00 0.00 0.00 68 1017.0
20260830231521 28 184 0.0 0.0 0.00 0.00 0.00 67 1017.0
20260830231018 28 184 0.0 0.0 0.00 0.00 0.00 68 1017.1
20260830230517 29 184 0.0 0.0 0.00 0.00 0.00 67 1017.1
20260830230017 29 184 0.0 0.0 0.00 0.00 0.00 67 1017.0
20260830225516 29 184 0.0 0.0 0.00 0.00 0.00 67 1016.9
20260830225016 29 184 0.0 0.0 0.00 0.00 0.00 66 1017.0
20260830224516 29 184 0.0 0.0 0.00 0.00 0.00 65 1016.9
20260830224016 30 184 0.0 0.0 0.00 0.00 0.00 64 1016.9
20260830223516 30 184 0.0 0.0 0.00 0.00 0.00 65 1017.1
20260830223015 30 184 0.0 0.0 0.00 0.00 0.00 64 1017.0
20260830222515 30 184 0.0 3.2 0.00 0.00 0.00 64 1017.0
20260830222015 30 186 0.0 3.2 0.00 0.00 0.00 65 1017.1
20260830221515 30 186 0.0 4.8 0.00 0.00 0.00 63 1016.9
20260830221014 30 186 0.0 6.4 0.00 0.00 0.00 62 1016.9
20260830220514 30 187 1.6 6.4 0.00 0.00 0.00 60 1016.9
20260830220014 30 109 1.6 6.4 0.00 0.00 0.00 62 1016.9
20260830215513 30 150 1.6 6.4 0.00 0.00 0.00 65 1016.9
20260830215013 28 111 0.0 3.2 0.00 0.00 0.00 68 1017.0
20260830214513 29 110 0.0 0.0 0.00 0.00 0.00 67 1016.9
20260830214013 29 110 0.0 1.6 0.00 0.00 0.00 65 1016.9
20260830213512 30 109 0.0 6.4 0.00 0.00 0.00 65 1017.0
20260830213022 30 109 0.0 8.0 0.00 0.00 0.00 64 1017.1
20260830212511 30 127 0.0 3.2 0.00 0.00 0.00 65 1017.1
20260830212011 30 120 1.6 3.2 0.00 0.00 0.00 65 1017.3
20260830211511 30 124 0.0 6.4 0.00 0.00 0.00 66 1017.3
20260830211011 30 125 3.2 6.4 0.00 0.00 0.00 66 1017.3
20260830210511 29 154 0.0 4.8 0.00 0.00 0.00 68 1017.3
20260830210027 29 152 0.0 4.8 0.00 0.00 0.00 67 1017.3
20260830205510 29 165 0.0 3.2 0.00 0.00 0.00 65 1017.4
20260830205009 29 167 0.0 4.8 0.00 0.00 0.00 65 1017.4
20260830204509 29 162 0.0 4.8 0.00 0.00 0.00 65 1017.4
20260830204008 29 51 0.0 3.2 0.00 0.00 0.00 64 1017.5
20260830203508 30 162 1.6 3.2 0.00 0.00 0.00 65 1017.5
20260830203009 30 164 0.0 9.7 0.00 0.00 0.00 65 1017.6
20260830202509 30 88 1.6 9.7 0.00 0.00 0.00 64 1017.5
20260830202006 30 102 1.6 6.4 0.00 0.00 0.00 65 1017.6
20260830201507 30 166 1.6 6.4 0.00 0.00 0.00 64 1017.7
20260830201005 30 131 0.0 6.4 0.00 0.00 0.00 64 1017.7
20260830200505 30 158 1.6 8.0 0.00 0.00 0.00 63 1017.8
20260830200007 30 101 3.2 8.0 0.00 0.00 0.00 64 1017.9
20260830195504 30 132 0.0 8.0 0.00 0.00 0.00 64 1017.9
20260830195003 30 134 1.6 4.8 0.00 0.00 0.00 64 1018.0
20260830194503 30 115 0.0 4.8 0.00 0.00 0.00 64 1018.1
20260830194003 30 151 1.6 6.4 0.00 0.00 0.00 64 1018.1
20260830193503 30 67 3.2 9.7 0.00 0.00 0.00 64 1018.2
20260830193004 30 108 3.2 9.7 0.00 0.00 0.00 65 1018.2
20260830192502 30 63 1.6 8.0 0.00 0.00 0.00 64 1018.1
20260830192001 30 65 3.2 8.0 0.00 0.00 0.00 64 1018.2
20260830191600 31 127 3.2 6.4 0.00 0.00 0.00 62 1018.3
20260830191103 30 131 1.6 8.0 0.00 0.00 0.00 66 1018.3
20260830190559 30 115 3.2 8.0 0.00 0.00 0.00 65 1018.4
20260830190058 30 300 0.0 8.0 0.00 0.00 0.00 66 1018.5
20260830185600 30 297 1.6 9.7 0.00 0.00 0.00 65 1018.6
20260830185056 30 120 1.6 8.0 0.00 0.00 0.00 67 1018.7
20260830184606 30 259 1.6 8.0 0.00 0.00 0.00 67 1018.6
20260830184058 29 200 3.2 9.7 0.00 0.00 0.00 67 1018.7
20260830183555 30 186 4.8 9.7 0.00 0.00 0.00 66 1018.8
20260830183057 30 128 1.6 8.0 0.00 0.00 0.00 64 1018.9